DLH3TX EDDF-ENGM

Flight info

Callsign DLH3TX
Flight time N/A
Altitude 37000
Route MARUN6E MARUN Y150 TOLGI DCT ALASA DCT INVOL DCT SABAK L997 LUNIP
Aircraft A320/M-SDE2E3FGIJ1LORWXYZ/HB1

Departure

Time 2026-05-08 02:11
Airport Frankfurt Main Airport (EDDF)

Arrival

Time N/A
Airport Oslo-Gardermoen International Airport (ENGM)
Time Latitude Longitude Altitude Speed Heading
2026-05-08 01:47 50.04390 8.56168 362 ft 0 kts 155°
2026-05-08 02:02 50.04391 8.56168 356 ft 2 kts 155°
2026-05-08 02:02 50.04413 8.56151 363 ft 4 kts 155°
2026-05-08 02:02 50.04438 8.56136 357 ft 4 kts 172°
2026-05-08 02:02 50.04457 8.56139 363 ft 3 kts 244°
2026-05-08 02:03 50.04459 8.56143 359 ft 0 kts 249°
2026-05-08 02:05 50.04452 8.56113 361 ft 11 kts 249°
2026-05-08 02:05 50.04419 8.55997 363 ft 11 kts 231°
2026-05-08 02:05 50.04366 8.55926 360 ft 9 kts 192°
2026-05-08 02:06 50.04303 8.55953 356 ft 10 kts 159°
2026-05-08 02:06 50.04240 8.55941 359 ft 9 kts 221°
2026-05-08 02:06 50.04218 8.55850 359 ft 9 kts 251°
2026-05-08 02:06 50.04198 8.55761 353 ft 8 kts 247°
2026-05-08 02:07 50.04169 8.55651 352 ft 17 kts 249°
2026-05-08 02:07 50.04132 8.55495 355 ft 9 kts 250°
2026-05-08 02:07 50.04112 8.55405 354 ft 8 kts 250°
2026-05-08 02:07 50.04091 8.55355 360 ft 3 kts 174°
2026-05-08 02:08 50.04081 8.55367 355 ft 2 kts 146°
2026-05-08 02:08 50.04056 8.55406 361 ft 11 kts 134°
2026-05-08 02:08 50.03962 8.55465 350 ft 16 kts 169°
2026-05-08 02:08 50.03886 8.55487 354 ft 10 kts 160°
2026-05-08 02:09 50.03821 8.55525 351 ft 10 kts 159°
2026-05-08 02:09 50.03770 8.55565 353 ft 2 kts 121°
2026-05-08 02:09 50.03770 8.55582 357 ft 1 kts 85°
2026-05-08 02:09 50.03775 8.55608 351 ft 0 kts 70°
2026-05-08 02:10 50.03778 8.55619 355 ft 9 kts 70°
2026-05-08 02:11 50.03892 8.56093 353 ft 84 kts 70°
2026-05-08 02:11 50.04167 8.57241 367 ft 140 kts 69°
2026-05-08 02:11 50.04545 8.58781 796 ft 152 kts 69°
2026-05-08 02:11 50.04905 8.60335 1493 ft 155 kts 70°
2026-05-08 02:12 50.05326 8.62003 1935 ft 176 kts 60°
2026-05-08 02:12 50.06271 8.63362 2277 ft 201 kts 24°
2026-05-08 02:12 50.07706 8.63611 2837 ft 216 kts 357°
2026-05-08 02:12 50.09216 8.63476 3714 ft 219 kts 357°
2026-05-08 02:13 50.10739 8.63359 4518 ft 227 kts 356°
2026-05-08 02:13 50.12399 8.63240 4988 ft 251 kts 356°
2026-05-08 02:13 50.14206 8.63116 5672 ft 265 kts 356°
2026-05-08 02:13 50.16065 8.62990 6575 ft 270 kts 356°
2026-05-08 02:14 50.17957 8.62865 7437 ft 274 kts 356°
2026-05-08 02:14 50.19903 8.62737 8324 ft 278 kts 356°
2026-05-08 02:14 50.21851 8.62604 9197 ft 283 kts 356°
2026-05-08 02:14 50.23830 8.62469 10066 ft 287 kts 356°
2026-05-08 02:15 50.25872 8.62331 10550 ft 305 kts 356°
2026-05-08 02:15 50.28071 8.62183 10922 ft 324 kts 356°
2026-05-08 02:15 50.30349 8.62033 11612 ft 331 kts 356°
2026-05-08 02:15 50.32667 8.61884 12390 ft 335 kts 356°
2026-05-08 02:16 50.35009 8.61797 13194 ft 339 kts 358°
2026-05-08 02:16 50.37383 8.61784 13956 ft 343 kts 358°
2026-05-08 02:16 50.39785 8.61809 14630 ft 347 kts 359°
2026-05-08 02:16 50.42209 8.61843 15283 ft 351 kts 359°
2026-05-08 02:17 50.44660 8.61899 15934 ft 355 kts
2026-05-08 02:17 50.47134 8.62246 16590 ft 359 kts
2026-05-08 02:17 50.49636 8.62609 17249 ft 363 kts
2026-05-08 02:17 50.52159 8.62968 17897 ft 366 kts
2026-05-08 02:18 50.54716 8.63325 18523 ft 370 kts
2026-05-08 02:18 50.57290 8.63683 19084 ft 374 kts
2026-05-08 02:18 50.59893 8.64046 19658 ft 376 kts
2026-05-08 02:18 50.62507 8.64412 20225 ft 379 kts
2026-05-08 02:19 50.65150 8.64784 20791 ft 382 kts
2026-05-08 02:19 50.67803 8.65159 21342 ft 385 kts
2026-05-08 02:19 50.70484 8.65536 21877 ft 388 kts
2026-05-08 02:19 50.73179 8.65918 22413 ft 391 kts
2026-05-08 02:20 50.75903 8.66307 22939 ft 394 kts
2026-05-08 02:20 50.78609 8.67097 23442 ft 399 kts 15°
2026-05-08 02:20 50.81195 8.68740 23904 ft 403 kts 27°
2026-05-08 02:20 50.83546 8.71197 24321 ft 408 kts 38°
2026-05-08 02:21 50.85564 8.74383 24727 ft 412 kts 50°
2026-05-08 02:21 50.87314 8.77999 25131 ft 415 kts 52°
2026-05-08 02:21 50.89067 8.81657 25529 ft 418 kts 52°
2026-05-08 02:21 50.90831 8.85339 25929 ft 421 kts 52°
2026-05-08 02:22 50.92605 8.89049 26323 ft 424 kts 52°
2026-05-08 02:22 50.94412 8.92835 26719 ft 426 kts 52°
2026-05-08 02:22 50.96209 8.96599 27103 ft 429 kts 52°
2026-05-08 02:22 50.98015 9.00391 27478 ft 432 kts 52°
2026-05-08 02:23 50.99828 9.04212 27866 ft 435 kts 52°
2026-05-08 02:23 51.01649 9.08053 28238 ft 437 kts 52°
2026-05-08 02:23 51.03483 9.11926 28607 ft 440 kts 52°
2026-05-08 02:23 51.05329 9.15831 28957 ft 443 kts 52°
2026-05-08 02:24 51.07185 9.19747 29311 ft 445 kts 50°
2026-05-08 02:24 51.09296 9.23354 29653 ft 446 kts 40°
2026-05-08 02:24 51.11748 9.26362 29994 ft 446 kts 30°
2026-05-08 02:24 51.14475 9.28707 30305 ft 445 kts 21°
2026-05-08 02:25 51.17395 9.30311 30580 ft 444 kts 11°
2026-05-08 02:25 51.20412 9.31363 30881 ft 445 kts
2026-05-08 02:25 51.23453 9.32404 31138 ft 448 kts
2026-05-08 02:25 51.26499 9.33459 31409 ft 450 kts
2026-05-08 02:26 51.29561 9.34527 31701 ft 451 kts
2026-05-08 02:26 51.32622 9.35599 32095 ft 449 kts
2026-05-08 02:26 51.35672 9.36668 32491 ft 448 kts
2026-05-08 02:26 51.38716 9.37734 32873 ft 447 kts
2026-05-08 02:27 51.41759 9.38799 33260 ft 447 kts
2026-05-08 02:27 51.44790 9.39854 33647 ft 446 kts
2026-05-08 02:27 51.47822 9.40909 34021 ft 445 kts
2026-05-08 02:27 51.50846 9.41966 34360 ft 445 kts
2026-05-08 02:28 51.53863 9.43025 34656 ft 445 kts
2026-05-08 02:28 51.56888 9.44092 34931 ft 445 kts
2026-05-08 02:28 51.59911 9.45160 35192 ft 445 kts
2026-05-08 02:28 51.62937 9.46226 35447 ft 445 kts
2026-05-08 02:29 51.66005 9.47306 35702 ft 446 kts
2026-05-08 02:29 51.68998 9.48360 35940 ft 446 kts 10°
2026-05-08 02:29 51.72073 9.49442 36178 ft 447 kts 10°
2026-05-08 02:29 51.75113 9.50514 36407 ft 447 kts 10°
2026-05-08 02:30 51.78152 9.51594 36638 ft 447 kts 10°
2026-05-08 02:30 51.81193 9.52678 36864 ft 448 kts 10°
2026-05-08 02:30 51.84264 9.53489 37073 ft 446 kts
2026-05-08 02:30 51.87349 9.53899 37141 ft 444 kts
2026-05-08 02:31 51.93501 9.54713 37147 ft 443 kts
2026-05-08 02:31 51.99631 9.55538 37144 ft 442 kts
2026-05-08 02:32 52.05763 9.56388 37144 ft 442 kts
2026-05-08 02:32 52.11900 9.57232 37145 ft 442 kts
2026-05-08 02:33 52.18038 9.58062 37159 ft 443 kts
2026-05-08 02:33 52.24172 9.58895 37161 ft 443 kts
2026-05-08 02:34 52.30315 9.59731 37167 ft 443 kts
2026-05-08 02:34 52.36465 9.60579 37172 ft 443 kts
2026-05-08 02:35 52.42613 9.61426 37178 ft 443 kts
2026-05-08 02:35 52.48756 9.62267 37174 ft 443 kts
2026-05-08 02:36 52.54897 9.63113 37171 ft 443 kts
2026-05-08 02:36 52.61039 9.63962 37162 ft 443 kts
2026-05-08 02:37 52.67219 9.64825 37161 ft 443 kts
2026-05-08 02:37 52.73357 9.65693 37155 ft 443 kts
2026-05-08 02:38 52.79496 9.66555 37156 ft 443 kts
2026-05-08 02:38 52.85638 9.67407 37159 ft 443 kts
2026-05-08 02:39 52.91791 9.68269 37168 ft 444 kts
2026-05-08 02:39 52.97943 9.69146 37172 ft 443 kts
2026-05-08 02:40 53.04092 9.70021 37171 ft 443 kts
2026-05-08 02:40 53.10235 9.70884 37175 ft 443 kts
2026-05-08 02:41 53.16386 9.71760 37178 ft 443 kts
2026-05-08 02:41 53.21495 9.72496 37176 ft 443 kts
2026-05-08 02:42 53.27675 9.73380 37175 ft 443 kts
2026-05-08 02:42 53.33811 9.74248 37174 ft 443 kts
2026-05-08 02:43 53.39951 9.75127 37178 ft 443 kts
2026-05-08 02:43 53.46093 9.76027 37200 ft 443 kts
2026-05-08 02:44 53.52243 9.76917 37205 ft 443 kts
2026-05-08 02:44 53.58397 9.77799 37204 ft 444 kts
2026-05-08 02:45 53.64547 9.78698 37208 ft 444 kts
2026-05-08 02:45 53.70696 9.79609 37204 ft 444 kts
2026-05-08 02:46 53.76851 9.80520 37206 ft 444 kts
2026-05-08 02:46 53.83003 9.81423 37199 ft 444 kts
2026-05-08 02:47 53.89152 9.82325 37196 ft 444 kts
2026-05-08 02:47 53.95303 9.83236 37195 ft 443 kts
2026-05-08 02:48 54.01449 9.84145 37192 ft 443 kts
2026-05-08 02:48 54.07588 9.85052 37191 ft 443 kts
2026-05-08 02:49 54.13732 9.85975 37196 ft 443 kts
2026-05-08 02:49 54.19873 9.86893 37199 ft 443 kts
2026-05-08 02:50 54.26049 9.87809 37201 ft 443 kts
2026-05-08 02:50 54.32186 9.88734 37194 ft 443 kts
2026-05-08 02:51 54.38326 9.89662 37197 ft 443 kts
2026-05-08 02:51 54.44465 9.90589 37199 ft 443 kts
2026-05-08 02:52 54.50597 9.91526 37201 ft 443 kts
2026-05-08 02:52 54.56736 9.92467 37202 ft 443 kts
2026-05-08 02:53 54.62878 9.93407 37205 ft 443 kts
2026-05-08 02:53 54.69013 9.94341 37212 ft 443 kts
2026-05-08 02:54 54.75142 9.95273 37215 ft 442 kts
2026-05-08 02:54 54.81259 9.96362 37214 ft 441 kts 11°
2026-05-08 02:55 54.90222 10.00022 37227 ft 441 kts 14°
2026-05-08 02:56 54.96193 10.02474 37225 ft 441 kts 14°
2026-05-08 02:56 55.02165 10.04935 37224 ft 441 kts 14°
2026-05-08 02:57 55.08130 10.07415 37217 ft 440 kts 14°
2026-05-08 02:57 55.14123 10.09911 37216 ft 440 kts 14°
2026-05-08 02:58 55.20084 10.12401 37220 ft 440 kts 14°
2026-05-08 02:58 55.26029 10.14903 37212 ft 439 kts 14°
2026-05-08 02:59 55.31967 10.17415 37210 ft 439 kts 14°
2026-05-08 02:59 55.37907 10.19917 37211 ft 439 kts 14°
2026-05-08 03:00 55.43858 10.22422 37209 ft 439 kts 14°
2026-05-08 03:00 55.49804 10.24939 37210 ft 440 kts 14°
2026-05-08 03:01 55.55749 10.27471 37214 ft 440 kts 14°
2026-05-08 03:01 55.61698 10.30015 37216 ft 440 kts 14°
2026-05-08 03:02 55.67650 10.32558 37216 ft 440 kts 14°
2026-05-08 03:02 55.73593 10.35115 37214 ft 440 kts 14°
2026-05-08 03:03 55.79537 10.37688 37216 ft 440 kts 14°
2026-05-08 03:03 55.85480 10.40261 37214 ft 439 kts 14°
2026-05-08 03:04 55.91421 10.42845 37212 ft 440 kts 14°
2026-05-08 03:04 55.97366 10.45436 37212 ft 440 kts 14°
2026-05-08 03:05 56.03357 10.48040 37209 ft 440 kts 14°
2026-05-08 03:05 56.09298 10.50636 37208 ft 440 kts 14°
2026-05-08 03:06 56.15242 10.53250 37205 ft 440 kts 14°
2026-05-08 03:06 56.21182 10.55871 37207 ft 440 kts 14°
2026-05-08 03:07 56.27135 10.58495 37215 ft 440 kts 14°
2026-05-08 03:07 56.33086 10.61143 37217 ft 441 kts 14°
2026-05-08 03:08 56.39045 10.63796 37219 ft 441 kts 14°
2026-05-08 03:08 56.45005 10.66457 37222 ft 441 kts 14°
2026-05-08 03:09 56.50962 10.69123 37227 ft 441 kts 14°
2026-05-08 03:09 56.56918 10.71800 37225 ft 441 kts 14°
2026-05-08 03:10 56.62874 10.74483 37223 ft 441 kts 14°
2026-05-08 03:10 56.68836 10.77165 37224 ft 441 kts 14°
2026-05-08 03:11 56.74793 10.79862 37225 ft 441 kts 14°
2026-05-08 03:11 56.80745 10.82572 37224 ft 441 kts 14°
2026-05-08 03:12 56.86693 10.85300 37222 ft 441 kts 14°
2026-05-08 03:12 56.92649 10.88036 37225 ft 441 kts 14°
2026-05-08 03:13 56.98643 10.90791 37220 ft 441 kts 14°
2026-05-08 03:13 57.04593 10.93537 37220 ft 441 kts 14°
2026-05-08 03:14 57.10548 10.96294 37220 ft 441 kts 14°
2026-05-08 03:14 57.16499 10.99050 37219 ft 441 kts 14°
2026-05-08 03:15 57.22452 11.01822 37220 ft 441 kts 14°
2026-05-08 03:15 57.27401 11.04135 37219 ft 441 kts 14°
2026-05-08 03:16 57.33352 11.06929 37217 ft 441 kts 14°
2026-05-08 03:16 57.39295 11.09740 37216 ft 441 kts 14°
2026-05-08 03:17 57.45254 11.12536 37220 ft 441 kts 13°
2026-05-08 03:17 57.51207 11.15349 37215 ft 441 kts 13°
2026-05-08 03:18 57.57193 11.18194 37215 ft 442 kts 14°
2026-05-08 03:18 57.63149 11.21042 37214 ft 442 kts 14°
2026-05-08 03:19 57.68927 11.24903 37214 ft 442 kts 22°
2026-05-08 03:19 57.74585 11.29414 37214 ft 442 kts 22°
2026-05-08 03:20 57.80249 11.33933 37214 ft 443 kts 22°
2026-05-08 03:20 57.85917 11.38480 37214 ft 443 kts 22°
2026-05-08 03:21 57.91579 11.43048 37214 ft 443 kts 22°
2026-05-08 03:21 57.97241 11.47643 37222 ft 443 kts 22°
2026-05-08 03:22 58.02909 11.52234 37216 ft 443 kts 22°
2026-05-08 03:22 58.08581 11.56840 37215 ft 444 kts 22°
2026-05-08 03:23 58.14287 11.61290 37206 ft 444 kts 15°
2026-05-08 03:23 58.20353 11.62999 37208 ft 441 kts 357°
2026-05-08 03:24 58.26425 11.61580 37204 ft 440 kts 349°
2026-05-08 03:24 58.32475 11.59724 37208 ft 441 kts 349°
2026-05-08 03:25 58.38574 11.57853 37215 ft 441 kts 349°
2026-05-08 03:25 58.44634 11.55962 37213 ft 441 kts 349°
2026-05-08 03:26 58.50696 11.54060 37213 ft 442 kts 349°
2026-05-08 03:26 58.56760 11.52171 37228 ft 442 kts 348°
2026-05-08 03:27 58.62825 11.50275 37223 ft 441 kts 348°
2026-05-08 03:27 58.68889 11.48370 37228 ft 441 kts 348°
2026-05-08 03:28 58.74950 11.46445 37222 ft 441 kts 348°
2026-05-08 03:28 58.81009 11.44524 37230 ft 441 kts 348°
2026-05-08 03:29 58.87071 11.42595 37239 ft 441 kts 348°
2026-05-08 03:29 58.93132 11.40654 37231 ft 441 kts 348°
2026-05-08 03:30 59.02223 11.37736 37226 ft 442 kts 348°
2026-05-08 03:31 59.14325 11.33618 37239 ft 440 kts 344°
2026-05-08 03:31 59.20428 11.31219 35377 ft 462 kts 348°
2026-05-08 03:32 59.23687 11.30338 34333 ft 470 kts 349°
2026-05-08 03:32 59.26948 11.29572 33322 ft 473 kts 351°
2026-05-08 03:32 59.30230 11.28898 32313 ft 475 kts 351°
2026-05-08 03:32 59.33530 11.28276 31301 ft 478 kts 352°
2026-05-08 03:33 59.36845 11.27659 30291 ft 480 kts 352°
2026-05-08 03:33 59.40171 11.27019 29076 ft 482 kts 351°
2026-05-08 03:33 59.43512 11.26348 27844 ft 483 kts 351°
2026-05-08 03:33 59.46862 11.25644 26597 ft 485 kts 351°
2026-05-08 03:34 59.50224 11.24876 25354 ft 487 kts 351°
2026-05-08 03:34 59.53568 11.24062 24477 ft 481 kts 351°